• In Hungary
  • List of Countries
  • For 7 days
  • Water Temperature
  • Satellite Maps
  • Weather Map
  • News
  • Weather Widgets
  • user-avatar
    Login

    Hourly Weather Filderstadt

    Today, 25 February, Sunday

    Time Temperature Precipitation Wind Pressure Humidity
    00:00 -9°C° 0 mm 6 mps 729 mmHg 63%
    01:00 -10°C° 0 mm 6 mps 729 mmHg 63%
    02:00 -10°C° 0 mm 6 mps 729 mmHg 63%
    03:00 -11°C° 0 mm 6 mps 729 mmHg 63%
    04:00 -11°C° 0 mm 6 mps 729 mmHg 62%
    05:00 -11°C° 0 mm 6 mps 729 mmHg 62%
    06:00 -12°C° 0 mm 6 mps 730 mmHg 61%
    07:00 -12°C° 0 mm 6 mps 730 mmHg 61%
    08:00 -11°C° 0 mm 6 mps 730 mmHg 57%
    09:00 -11°C° 0 mm 6 mps 730 mmHg 53%
    10:00 -11°C° 0 mm 7 mps 730 mmHg 49%
    11:00 -9°C° 0 mm 6 mps 730 mmHg 46%
    12:00 -8°C° 0 mm 6 mps 730 mmHg 43%
    13:00 -6°C° 0 mm 6 mps 730 mmHg 40%
    14:00 -6°C° 0 mm 6 mps 730 mmHg 39%
    15:00 -6°C° 0 mm 6 mps 730 mmHg 39%
    16:00 -6°C° 0 mm 5 mps 730 mmHg 38%
    17:00 -7°C° 0 mm 5 mps 730 mmHg 41%
    18:00 -8°C° 0 mm 4 mps 730 mmHg 44%
    19:00 -9°C° 0 mm 4 mps 730 mmHg 47%
    20:00 -9°C° 0 mm 4 mps 730 mmHg 48%
    21:00 -9°C° 0 mm 4 mps 730 mmHg 50%
    22:00 -10°C° 0 mm 4 mps 731 mmHg 51%
    23:00 -10°C° 0 mm 4 mps 731 mmHg 52%

    Tomorrow, 26 February, Monday

    Time Temperature Precipitation Wind Pressure Humidity
    00:00 -11°C° 0 mm 4 mps 731 mmHg 53%
    01:00 -11°C° 0 mm 4 mps 731 mmHg 55%
    02:00 -11°C° 0 mm 4 mps 731 mmHg 55%
    03:00 -11°C° 0 mm 4 mps 731 mmHg 55%
    04:00 -12°C° 0 mm 4 mps 730 mmHg 56%
    05:00 -12°C° 0 mm 4 mps 731 mmHg 56%
    06:00 -12°C° 0 mm 4 mps 731 mmHg 57%
    07:00 -12°C° 0 mm 4 mps 731 mmHg 58%
    08:00 -13°C° 0 mm 5 mps 731 mmHg 55%
    09:00 -12°C° 0 mm 5 mps 731 mmHg 52%
    10:00 -12°C° 0 mm 5 mps 731 mmHg 49%
    11:00 -11°C° 0 mm 5 mps 731 mmHg 46%
    12:00 -10°C° 0 mm 5 mps 731 mmHg 44%
    13:00 -8°C° 0 mm 5 mps 730 mmHg 41%
    14:00 -8°C° 0 mm 5 mps 730 mmHg 41%
    15:00 -8°C° 0 mm 5 mps 730 mmHg 40%
    16:00 -8°C° 0 mm 5 mps 730 mmHg 40%
    17:00 -10°C° 0 mm 5 mps 730 mmHg 43%
    18:00 -9°C° 0 mm 4 mps 730 mmHg 46%
    19:00 -9°C° 0 mm 3 mps 730 mmHg 50%
    20:00 -10°C° 0 mm 4 mps 730 mmHg 51%
    21:00 -11°C° 0 mm 4 mps 730 mmHg 53%
    22:00 -11°C° 0 mm 4 mps 730 mmHg 54%
    23:00 -11°C° 0 mm 4 mps 729 mmHg 56%

    Day after tomorrow, 27 February, Tuesday

    Time Temperature Precipitation Wind Pressure Humidity
    00:00 -12°C° 0 mm 4 mps 729 mmHg 57%
    01:00 -12°C° 0 mm 4 mps 729 mmHg 58%
    02:00 -12°C° 0 mm 3 mps 729 mmHg 58%
    03:00 -12°C° 0 mm 3 mps 728 mmHg 59%
    04:00 -13°C° 0 mm 3 mps 728 mmHg 60%
    05:00 -13°C° 0 mm 3 mps 728 mmHg 61%
    06:00 -13°C° 0 mm 3 mps 728 mmHg 62%
    07:00 -13°C° 0 mm 3 mps 728 mmHg 63%
    08:00 -13°C° 0 mm 3 mps 728 mmHg 59%
    09:00 -12°C° 0 mm 4 mps 728 mmHg 56%
    10:00 -11°C° 0 mm 4 mps 728 mmHg 52%
    11:00 -10°C° 0 mm 4 mps 727 mmHg 49%
    12:00 -10°C° 0 mm 4 mps 727 mmHg 46%
    13:00 -9°C° 0 mm 4 mps 727 mmHg 43%
    14:00 -9°C° 0 mm 4 mps 727 mmHg 42%
    15:00 -9°C° 0 mm 4 mps 727 mmHg 42%
    16:00 -8°C° 0 mm 4 mps 726 mmHg 41%
    17:00 -8°C° 0 mm 3 mps 727 mmHg 45%
    18:00 -9°C° 0 mm 3 mps 727 mmHg 48%
    19:00 -9°C° 0 mm 2 mps 727 mmHg 52%
    20:00 -9°C° 0 mm 2 mps 727 mmHg 53%
    21:00 -9°C° 0 mm 2 mps 727 mmHg 55%
    22:00 -10°C° 0 mm 2 mps 727 mmHg 56%
    23:00 -10°C° 0 mm 2 mps 727 mmHg 58%

    28 February, Wednesday

    Time Temperature Precipitation Wind Pressure Humidity
    00:00 -10°C° 0 mm 2 mps 727 mmHg 60%
    01:00 -10°C° 0 mm 2 mps 727 mmHg 62%
    02:00 -10°C° 0 mm 2 mps 727 mmHg 64%
    03:00 -13°C° 0 mm 3 mps 727 mmHg 66%
    04:00 -13°C° 0 mm 3 mps 727 mmHg 69%
    05:00 -13°C° 0 mm 3 mps 727 mmHg 69%
    06:00 -13°C° 0 mm 3 mps 727 mmHg 70%
    07:00 -13°C° 0 mm 3 mps 728 mmHg 71%
    08:00 -12°C° 0 mm 3 mps 728 mmHg 66%
    09:00 -11°C° 0 mm 4 mps 728 mmHg 61%
    10:00 -11°C° 0 mm 5 mps 728 mmHg 56%
    11:00 -10°C° 0 mm 5 mps 727 mmHg 52%
    12:00 -8°C° 0 mm 5 mps 727 mmHg 48%
    13:00 -7°C° 0 mm 5 mps 727 mmHg 44%
    14:00 -6°C° 0 mm 5 mps 726 mmHg 43%
    15:00 -6°C° 0 mm 5 mps 726 mmHg 43%
    16:00 -6°C° 0 mm 5 mps 725 mmHg 42%
    17:00 -6°C° 0 mm 5 mps 725 mmHg 44%
    18:00 -7°C° 0 mm 5 mps 725 mmHg 46%
    19:00 -8°C° 0 mm 5 mps 725 mmHg 48%
    20:00 -9°C° 0 mm 6 mps 725 mmHg 50%
    21:00 -9°C° 0 mm 6 mps 725 mmHg 52%
    22:00 -10°C° 0 mm 6 mps 725 mmHg 53%
    23:00 -10°C° 0 mm 6 mps 724 mmHg 56%

    1 March, Thursday

    Time Temperature Precipitation Wind Pressure Humidity
    00:00 -10°C° 0 mm 5 mps 724 mmHg 59%
    01:00 -10°C° 0 mm 5 mps 723 mmHg 62%
    02:00 -10°C° 0 mm 5 mps 723 mmHg 62%
    03:00 -11°C° 0 mm 5 mps 723 mmHg 63%
    04:00 -10°C° 0 mm 4 mps 722 mmHg 64%
    05:00 -10°C° 0 mm 4 mps 722 mmHg 63%
    06:00 -10°C° 0 mm 4 mps 721 mmHg 63%
    07:00 -10°C° 0 mm 4 mps 721 mmHg 62%
    08:00 -9°C° 0 mm 4 mps 721 mmHg 59%
    09:00 -8°C° 0 mm 4 mps 721 mmHg 56%
    10:00 -7°C° 0 mm 4 mps 721 mmHg 54%
    11:00 -5°C° 0 mm 4 mps 720 mmHg 52%
    12:00 -4°C° 0 mm 4 mps 720 mmHg 50%
    13:00 -3°C° 0 mm 4 mps 719 mmHg 48%
    14:00 -3°C° 0.1 mm 4 mps 719 mmHg 50%
    15:00 -3°C° 0.1 mm 4 mps 719 mmHg 52%
    16:00 -3°C° 0.1 mm 4 mps 719 mmHg 54%
    17:00 -2°C° 0.1 mm 3 mps 719 mmHg 57%
    18:00 -4°C° 0.1 mm 3 mps 719 mmHg 59%
    19:00 -4°C° 0.1 mm 3 mps 719 mmHg 62%
    20:00 -4°C° 0 mm 3 mps 719 mmHg 63%
    21:00 -4°C° 0 mm 3 mps 719 mmHg 65%
    22:00 -4°C° 0 mm 3 mps 719 mmHg 66%
    23:00 -5°C° 0 mm 3 mps 719 mmHg 69%

    2 March, Friday

    Time Temperature Precipitation Wind Pressure Humidity
    00:00 -4°C° 0 mm 2 mps 719 mmHg 71%
    01:00 -4°C° 0 mm 2 mps 719 mmHg 74%
    02:00 -4°C° 0 mm 2 mps 718 mmHg 75%
    03:00 -4°C° 0 mm 2 mps 718 mmHg 76%
    04:00 -4°C° 0 mm 2 mps 718 mmHg 77%
    05:00 -4°C° 0 mm 2 mps 718 mmHg 78%
    06:00 -3°C° 0 mm 2 mps 718 mmHg 78%
    07:00 -3°C° 0 mm 2 mps 718 mmHg 78%
    08:00 -2°C° 0 mm 2 mps 718 mmHg 75%
    09:00 -1°C° 0 mm 2 mps 718 mmHg 72%
    10:00 +2°C° 0 mm 2 mps 719 mmHg 69%
    11:00 +3°C° 0.1 mm 2 mps 719 mmHg 70%
    12:00 +4°C° 0.1 mm 2 mps 719 mmHg 71%
    13:00 +4°C° 0.1 mm 2 mps 719 mmHg 72%
    14:00 +4°C° 0.3 mm 2 mps 719 mmHg 77%
    15:00 +4°C° 0.3 mm 2 mps 719 mmHg 81%
    16:00 +4°C° 0.3 mm 2 mps 719 mmHg 85%
    17:00 +4°C° 0.2 mm 2 mps 719 mmHg 88%
    18:00 +3°C° 0.2 mm 2 mps 719 mmHg 91%
    19:00 +3°C° 0.2 mm 2 mps 720 mmHg 93%
    20:00 +3°C° 0 mm 2 mps 720 mmHg 93%
    21:00 +3°C° 0 mm 2 mps 720 mmHg 94%
    22:00 +3°C° 0 mm 2 mps 720 mmHg 94%
    23:00 +3°C° 0.3 mm 2 mps 720 mmHg 94%
    Show more